This is the latest recevied weather packets stored in our database for station/object F5PHW-13. If no packets are shown the sender has not sent any weather packets the latest 10 day(s).
| Time | Temp. | Humidity | Pressure | Rain* | Wind** | Luminosity | Snow |
|---|---|---|---|---|---|---|---|
| 1777542681 | 21.11° C | 70% | 1012 hPa | 0 mm | - | - | - |
| 1777541486 | 20.56° C | 71% | 1012.1 hPa | 0 mm | - | - | - |
| 1777540281 | 20° C | 71% | 1011.7 hPa | 0 mm | - | - | - |
| 1777539081 | 19.44° C | 72% | 1011.7 hPa | 0 mm | - | - | - |
| 1777536682 | 18.89° C | 73% | 1011.6 hPa | 0 mm | - | - | - |
| 1777535480 | 18.33° C | 73% | 1011.5 hPa | 0 mm | - | - | - |
| 1777534277 | 16.67° C | 75% | 1011.4 hPa | 0 mm | - | - | - |
| 1777533078 | 16.67° C | 75% | 1011.3 hPa | 0 mm | - | - | - |
| 1777531877 | 16.11° C | 76% | 1011.2 hPa | 0 mm | - | - | - |
| 1777530677 | 15.56° C | 76% | 1010.9 hPa | 0 mm | - | - | - |
| 1777529478 | 15.56° C | 76% | 1010.9 hPa | 0 mm | - | - | - |
| 1777528277 | 15.56° C | 76% | 1010.6 hPa | 0 mm | - | - | - |
| 1777527077 | 15.56° C | 76% | 1010.5 hPa | 0 mm | - | - | - |
| 1777525877 | 15.56° C | 76% | 1010.4 hPa | 0 mm | - | - | - |
| 1777524679 | 15.56° C | 76% | 1010.4 hPa | 0 mm | - | - | - |
| 1777523480 | 16.11° C | 76% | 1010.3 hPa | 0 mm | - | - | - |
| 1777522281 | 16.11° C | 76% | 1010.3 hPa | 0 mm | - | - | - |
| 1777521080 | 16.11° C | 76% | 1010.3 hPa | 0 mm | - | - | - |
| 1777519880 | 16.11° C | 76% | 1010.2 hPa | 0 mm | - | - | - |
| 1777518681 | 16.11° C | 76% | 1010.1 hPa | 0 mm | - | - | - |
| 1777517480 | 16.11° C | 76% | 1010.1 hPa | 0 mm | - | - | - |
| 1777516279 | 16.11° C | 77% | 1010.1 hPa | 0 mm | - | - | - |
| 1777515080 | 16.11° C | 78% | 1010.2 hPa | 0 mm | - | - | - |
| 1777513879 | 16.11° C | 80% | 1010.1 hPa | 0 mm | - | - | - |
| 1777512680 | 16.67° C | 81% | 1010.2 hPa | 0 mm | - | - | - |
* Rain latest hour (hover to see other rain measurements)
** Current wind speed in m/s (hover to see current wind gust speed)